User: anonymous   Login
Location: Unspecified
(49.2170°N, 0.0000°E)
Time: 22:35:36
(UTC+00:00)
Language:

Vanguard 1 - Orbit

View from above orbital plane
View from above orbital plane
View from above satellite
View from above satellite

Ground track
Ground track

The orbit data is extracted from the following two-line orbital elements,

1     5U 58002B   19168.43960007 -.00000006  00000-0 -21002-5 0  9992
2     5  34.2436 275.6575 1841903 145.4203 228.1271 10.84762300165603
Epoch (UTC): 17 June 2019 10:33:01
Eccentricity: 0.1841903
inclination: 34.2436°
perigee height: 654 km
apogee height: 3829 km
right ascension of ascending node: 275.6575°
argument of perigee: 145.4203°
revolutions per day: 10.84762300
mean anomaly at epoch: 228.1271°
orbit number at epoch: 16560

The dashed part of the orbit path shows where the satellite is in the earth's shadow,  

DLR